| time (UTC) | temp C | wind direction | speed KPH | gust KPH | rain 1hr cm | rain 24hr cm | rain mn cm | humidity % | barometer mb |
| 20260506122132 | 5 | 333 | 4.8 | 11.3 | 0.00 | 0.00 | 0.00 | 65 | 1009.6 |
| 20260506121132 | 4 | 329 | 4.8 | 9.7 | 0.00 | 0.00 | 0.00 | 67 | 1009.3 |
| 20260506120132 | 4 | 320 | 4.8 | 8.0 | 0.00 | 0.00 | 0.00 | 68 | 1009.2 |
| 20260506115132 | 4 | 348 | 6.4 | 11.3 | 0.00 | 0.00 | 0.00 | 68 | 1009.1 |
| 20260506114605 | 4 | 22 | 4.8 | 8.0 | 0.00 | 0.00 | 0.00 | 70 | 1008.9 |
| 20260506113132 | 4 | 24 | 6.4 | 11.3 | 0.00 | 0.00 | 0.00 | 71 | 1008.9 |
| 20260506112125 | 4 | 355 | 6.4 | 11.3 | 0.00 | 0.00 | 0.00 | 70 | 1008.6 |
| 20260506111126 | 4 | 355 | 4.8 | 11.3 | 0.00 | 0.00 | 0.00 | 72 | 1008.3 |
| 20260506110123 | 4 | 0 | 4.8 | 9.7 | 0.00 | 0.00 | 0.00 | 73 | 1008.1 |
| 20260506105124 | 4 | 28 | 6.4 | 9.7 | 0.00 | 0.00 | 0.00 | 74 | 1008.1 |
| 20260506104123 | 4 | 350 | 4.8 | 11.3 | 0.00 | 0.00 | 0.00 | 75 | 1008.0 |
| 20260506103124 | 4 | 355 | 6.4 | 12.9 | 0.00 | 0.00 | 0.00 | 76 | 1007.9 |
| 20260506102610 | 4 | 0 | 6.4 | 12.9 | 0.00 | 0.00 | 0.00 | 76 | 1007.8 |
| 20260506101119 | 4 | 24 | 6.4 | 11.3 | 0.00 | 0.00 | 0.00 | 77 | 1007.9 |
| 20260506100119 | 4 | 11 | 6.4 | 14.5 | 0.00 | 0.00 | 0.00 | 77 | 1007.9 |
| 20260506095119 | 4 | 355 | 8.0 | 14.5 | 0.00 | 0.00 | 0.00 | 76 | 1007.8 |
| 20260506094119 | 5 | 12 | 8.0 | 12.9 | 0.00 | 0.00 | 0.00 | 76 | 1007.9 |
| 20260506094036 | 5 | 9 | 8.0 | 14.5 | 0.00 | 0.00 | 0.00 | 76 | 1007.9 |
| 20260506092113 | 5 | 0 | 8.0 | 14.5 | 0.00 | 0.00 | 0.00 | 74 | 1007.9 |
| 20260506091113 | 5 | 0 | 8.0 | 16.1 | 0.00 | 0.00 | 0.00 | 73 | 1007.8 |
| 20260506090113 | 5 | 0 | 6.4 | 12.9 | 0.00 | 0.00 | 0.00 | 73 | 1008.0 |
| 20260506085113 | 5 | 348 | 6.4 | 11.3 | 0.00 | 0.00 | 0.00 | 74 | 1008.2 |
| 20260506084113 | 5 | 5 | 3.2 | 8.0 | 0.00 | 0.00 | 0.00 | 77 | 1008.0 |
| 20260506083114 | 5 | 321 | 1.6 | 4.8 | 0.00 | 0.00 | 0.00 | 78 | 1007.9 |
| 20260506082113 | 5 | 313 | 3.2 | 6.4 | 0.00 | 0.00 | 0.00 | 79 | 1007.8 |
| 20260506081113 | 5 | 340 | 3.2 | 6.4 | 0.00 | 0.00 | 0.00 | 79 | 1007.9 |
| 20260506080113 | 5 | 326 | 3.2 | 6.4 | 0.00 | 0.00 | 0.00 | 79 | 1008.1 |
| 20260506073113 | 5 | 336 | 1.6 | 4.8 | 0.00 | 0.00 | 0.00 | 81 | 1007.7 |
| 20260506072111 | 5 | 340 | 3.2 | 4.8 | 0.00 | 0.00 | 0.00 | 81 | 1007.3 |
| 20260506071110 | 5 | 325 | 3.2 | 6.4 | 0.00 | 0.00 | 0.00 | 81 | 1007.5 |
| 20260506070112 | 5 | 324 | 3.2 | 8.0 | 0.00 | 0.00 | 0.00 | 83 | 1007.5 |
| 20260506062109 | 5 | 155 | 0.0 | 0.0 | 0.00 | 0.00 | 0.00 | 86 | 1007.6 |
| 20260506061111 | 5 | 155 | 0.0 | 0.0 | 0.00 | 0.00 | 0.00 | 86 | 1007.8 |
| 20260506044059 | 5 | 155 | 0.0 | 0.0 | 0.00 | 0.66 | 0.00 | 83 | 1008.1 |
| 20260506043053 | 5 | 155 | 0.0 | 0.0 | 0.00 | 0.66 | 0.00 | 82 | 1008.0 |
| 20260506042053 | 5 | 155 | 0.0 | 0.0 | 0.00 | 0.66 | 0.00 | 82 | 1007.9 |
| 20260506041053 | 5 | 155 | 0.0 | 0.0 | 0.00 | 0.66 | 0.00 | 81 | 1007.9 |
| 20260506040058 | 5 | 151 | 0.0 | 0.0 | 0.00 | 0.66 | 0.00 | 81 | 1007.8 |
| 20260506035538 | 5 | 151 | 0.0 | 0.0 | 0.00 | 0.66 | 0.66 | 81 | 1007.8 |
| 20260506034053 | 5 | 151 | 0.0 | 0.0 | 0.00 | 0.66 | 0.66 | 81 | 1007.9 |
| 20260506033539 | 5 | 239 | 0.0 | 0.0 | 0.00 | 0.66 | 0.66 | 80 | 1007.8 |
| 20260506032053 | 5 | 259 | 0.0 | 0.0 | 0.00 | 0.66 | 0.66 | 80 | 1007.7 |
| 20260506031054 | 5 | 197 | 0.0 | 0.0 | 0.00 | 0.66 | 0.66 | 80 | 1007.7 |
| 20260506030051 | 5 | 197 | 0.0 | 0.0 | 0.00 | 0.66 | 0.66 | 80 | 1007.8 |
| 20260506025534 | 5 | 197 | 0.0 | 0.0 | 0.00 | 0.66 | 0.66 | 79 | 1007.7 |
| 20260506024533 | 5 | 197 | 0.0 | 0.0 | 0.00 | 0.66 | 0.66 | 78 | 1007.8 |
| 20260506023052 | 5 | 197 | 0.0 | 0.0 | 0.00 | 0.66 | 0.66 | 77 | 1007.7 |
| 20260506022051 | 5 | 238 | 0.0 | 0.0 | 0.00 | 0.66 | 0.66 | 77 | 1007.6 |
| 20260506021052 | 6 | 202 | 0.0 | 0.0 | 0.00 | 0.66 | 0.66 | 78 | 1007.8 |
| 20260506020536 | 6 | 202 | 0.0 | 0.0 | 0.00 | 0.66 | 0.66 | 77 | 1008.1 |
| 20260506015045 | 6 | 202 | 0.0 | 0.0 | 0.00 | 0.66 | 0.66 | 76 | 1007.9 |
| 20260506014524 | 6 | 202 | 0.0 | 0.0 | 0.00 | 0.66 | 0.66 | 75 | 1007.7 |
| 20260506013044 | 6 | 202 | 0.0 | 0.0 | 0.00 | 0.66 | 0.66 | 74 | 1007.8 |
| 20260506012045 | 7 | 202 | 0.0 | 0.0 | 0.00 | 0.66 | 0.66 | 74 | 1007.5 |
| 20260506011526 | 7 | 156 | 0.0 | 0.0 | 0.00 | 0.66 | 0.66 | 73 | 1007.3 |
| 20260506010047 | 7 | 168 | 0.0 | 0.0 | 0.00 | 0.66 | 0.66 | 70 | 1007.1 |
| 20260506005045 | 7 | 165 | 1.6 | 4.8 | 0.00 | 0.66 | 0.66 | 72 | 1007.1 |
| 20260506004532 | 7 | 183 | 3.2 | 8.0 | 0.00 | 0.66 | 0.66 | 71 | 1007.0 |
| 20260506003043 | 7 | 167 | 0.0 | 8.0 | 0.00 | 0.66 | 0.66 | 69 | 1006.9 |
| 20260506002043 | 7 | 304 | 1.6 | 4.8 | 0.00 | 0.66 | 0.66 | 66 | 1006.8 |
| 20260506001042 | 7 | 330 | 1.6 | 6.4 | 0.00 | 0.66 | 0.66 | 65 | 1006.7 |
| 20260506000043 | 8 | 284 | 1.6 | 4.8 | 0.00 | 0.66 | 0.66 | 64 | 1006.6 |
| 20260505235043 | 8 | 313 | 4.8 | 9.7 | 0.00 | 0.66 | 0.66 | 64 | 1006.4 |
| 20260505234044 | 8 | 325 | 4.8 | 11.3 | 0.00 | 0.66 | 0.66 | 63 | 1006.5 |
| 20260505233042 | 9 | 355 | 4.8 | 12.9 | 0.00 | 0.66 | 0.66 | 60 | 1006.4 |
| 20260505232043 | 10 | 302 | 4.8 | 11.3 | 0.00 | 0.66 | 0.66 | 60 | 1006.4 |
| 20260505231522 | 10 | 292 | 3.2 | 12.9 | 0.00 | 0.66 | 0.66 | 59 | 1006.4 |
| 20260505230520 | 11 | 355 | 8.0 | 12.9 | 0.00 | 0.66 | 0.66 | 57 | 1006.3 |
| 20260505225037 | 11 | 349 | 3.2 | 11.3 | 0.00 | 0.66 | 0.66 | 56 | 1006.5 |
| 20260505224904 | 11 | 240 | 4.8 | 9.7 | 0.00 | 0.66 | 0.66 | 53 | 1006.4 |
| 20260505224100 | 11 | 117 | 3.2 | 8.0 | 0.00 | 0.66 | 0.66 | 55 | 1006.3 |
| 20260505222038 | 11 | 346 | 4.8 | 11.3 | 0.00 | 0.66 | 0.66 | 58 | 1006.6 |
| 20260505221036 | 11 | 27 | 3.2 | 9.7 | 0.00 | 0.66 | 0.66 | 53 | 1006.5 |
| 20260505220515 | 11 | 31 | 6.4 | 11.3 | 0.00 | 0.66 | 0.66 | 52 | 1006.6 |
| 20260505215036 | 11 | 342 | 4.8 | 11.3 | 0.00 | 0.66 | 0.66 | 56 | 1006.3 |
| 20260505214036 | 11 | 346 | 3.2 | 9.7 | 0.00 | 0.66 | 0.66 | 53 | 1006.3 |
| 20260505213036 | 11 | 326 | 4.8 | 12.9 | 0.00 | 0.66 | 0.66 | 53 | 1006.4 |
| 20260505212036 | 11 | 333 | 8.0 | 14.5 | 0.00 | 0.66 | 0.66 | 52 | 1006.4 |
| 20260505211036 | 11 | 335 | 4.8 | 17.7 | 0.00 | 0.66 | 0.66 | 55 | 1006.3 |
| 20260505210033 | 12 | 342 | 8.0 | 16.1 | 0.00 | 0.66 | 0.66 | 52 | 1006.2 |
| 20260505205033 | 12 | 355 | 4.8 | 14.5 | 0.00 | 0.66 | 0.66 | 55 | 1005.9 |
| 20260505204031 | 12 | 257 | 6.4 | 16.1 | 0.00 | 0.66 | 0.66 | 52 | 1006.1 |
| 20260505203032 | 12 | 224 | 4.8 | 14.5 | 0.00 | 0.66 | 0.66 | 53 | 1006.0 |
| 20260505202034 | 12 | 280 | 4.8 | 11.3 | 0.00 | 0.66 | 0.66 | 53 | 1006.0 |
| 20260505201034 | 12 | 265 | 6.4 | 17.7 | 0.00 | 0.66 | 0.66 | 51 | 1005.9 |
| 20260505200033 | 12 | 281 | 4.8 | 11.3 | 0.00 | 0.66 | 0.66 | 51 | 1005.9 |
| 20260505195034 | 12 | 326 | 6.4 | 17.7 | 0.00 | 0.66 | 0.66 | 54 | 1005.7 |
| 20260505194033 | 12 | 247 | 6.4 | 20.9 | 0.00 | 0.66 | 0.66 | 55 | 1005.6 |
| 20260505193032 | 12 | 142 | 6.4 | 17.7 | 0.00 | 0.66 | 0.66 | 50 | 1005.6 |
| 20260505192029 | 12 | 178 | 6.4 | 19.3 | 0.00 | 0.66 | 0.66 | 51 | 1005.8 |
| 20260505191024 | 12 | 0 | 4.8 | 14.5 | 0.00 | 0.66 | 0.66 | 52 | 1005.8 |
| 20260505190025 | 12 | 217 | 4.8 | 16.1 | 0.00 | 0.66 | 0.66 | 53 | 1005.6 |
| 20260505185024 | 11 | 246 | 6.4 | 14.5 | 0.00 | 0.66 | 0.66 | 53 | 1005.5 |
| 20260505184024 | 11 | 243 | 6.4 | 17.7 | 0.00 | 0.66 | 0.66 | 58 | 1005.5 |
| 20260505183510 | 11 | 329 | 6.4 | 14.5 | 0.00 | 0.66 | 0.66 | 55 | 1005.5 |
| 20260505182025 | 11 | 212 | 4.8 | 14.5 | 0.00 | 0.66 | 0.66 | 55 | 1005.5 |
| 20260505181024 | 11 | 242 | 3.2 | 14.5 | 0.00 | 0.66 | 0.66 | 58 | 1005.4 |
| 20260505180023 | 11 | 150 | 6.4 | 17.7 | 0.00 | 0.66 | 0.66 | 59 | 1005.4 |
| 20260505175024 | 11 | 175 | 6.4 | 17.7 | 0.00 | 0.66 | 0.66 | 61 | 1005.1 |
| 20260505174023 | 10 | 306 | 6.4 | 17.7 | 0.00 | 0.66 | 0.66 | 60 | 1005.1 |
| 20260505173018 | 10 | 347 | 6.4 | 14.5 | 0.00 | 0.66 | 0.66 | 66 | 1005.1 |
| 20260505172018 | 9 | 327 | 8.0 | 17.7 | 0.00 | 0.66 | 0.66 | 65 | 1005.1 |
| 20260505171507 | 8 | 23 | 6.4 | 14.5 | 0.00 | 0.66 | 0.66 | 66 | 1005.1 |
| 20260505170018 | 8 | 237 | 6.4 | 17.7 | 0.00 | 0.66 | 0.66 | 64 | 1005.1 |
| 20260505165018 | 8 | 5 | 6.4 | 14.5 | 0.00 | 0.66 | 0.66 | 65 | 1005.1 |
| 20260505164018 | 8 | 351 | 3.2 | 11.3 | 0.00 | 0.66 | 0.66 | 65 | 1005.0 |
| 20260505163018 | 9 | 5 | 4.8 | 9.7 | 0.00 | 0.66 | 0.66 | 63 | 1004.8 |
| 20260505162018 | 9 | 346 | 4.8 | 14.5 | 0.00 | 0.66 | 0.66 | 64 | 1004.7 |
| 20260505161009 | 9 | 331 | 6.4 | 16.1 | 0.00 | 0.66 | 0.66 | 64 | 1004.4 |
| 20260505160452 | 10 | 331 | 4.8 | 12.9 | 0.00 | 0.66 | 0.66 | 60 | 1004.7 |
| 20260505152442 | 10 | 319 | 4.8 | 16.1 | 0.00 | 0.66 | 0.66 | 62 | 1004.1 |
| 20260505151009 | 10 | 15 | 6.4 | 19.3 | 0.00 | 0.66 | 0.66 | 61 | 1003.6 |
| 20260505124956 | 7 | 315 | 3.2 | 9.7 | 0.00 | 0.66 | 0.66 | 83 | 1002.0 |
| 20260505123955 | 7 | 297 | 3.2 | 9.7 | 0.00 | 0.66 | 0.66 | 84 | 1002.0 |
| 20260505122955 | 7 | 171 | 1.6 | 4.8 | 0.00 | 0.66 | 0.66 | 86 | 1001.6 |